Location: McFarlands Corners
(41.4117°N, 81.3382°W)
Time: 10:28:59
(UTC+00:00)

Courier 1B Rocket - Pass Details

Date: 21 February 2026
Orbit: 920 x 1201 km, 28.2° (Epoch: 10 March)

Event Time Altitude Azimuth Distance (km) Brightness Sun altitude
Rises 00:49:55 0° 241° (WSW) 3,544 8.9 -20.3°
Reaches altitude 10° 00:52:59 10° 228° (SW) 2,603 7.8 -20.8°
Maximum altitude 00:57:50 24° 176° (S) 1,817 6.3 -21.7°
Enters shadow 00:59:35 21° 152° (SSE) 1,950 6.3 -22.1°
Drops below altitude 10° 01:02:48 10° 125° (SE) 2,670 - -22.7°
Sets 01:06:00 0° 112° (ESE) 3,655 - -23.3°
